| time (UTC) | temp C | wind direction | speed KPH | gust KPH | rain 1hr cm | rain 24hr cm | rain mn cm | humidity % | barometer mb |
| 20260504081545 | 6 | 72 | 3.2 | 6.4 | 0.00 | 0.00 | 0.00 | 78 | 1005.0 |
| 20260504050015 | 11 | 66 | 4.8 | 8.0 | 0.00 | 0.00 | 0.00 | 61 | 1005.1 |
| 20260504044514 | 11 | 63 | 0.0 | 4.8 | 0.00 | 0.00 | 0.00 | 64 | 1005.2 |
| 20260504043013 | 11 | 63 | 3.2 | 4.8 | 0.00 | 0.00 | 0.00 | 66 | 1005.3 |
| 20260504041509 | 11 | 63 | 4.8 | 8.0 | 0.00 | 0.00 | 0.00 | 66 | 1005.3 |
| 20260504040010 | 11 | 63 | 6.4 | 8.0 | 0.00 | 0.00 | 0.00 | 67 | 1005.3 |
| 20260504034508 | 12 | 63 | 3.2 | 6.4 | 0.00 | 0.00 | 0.00 | 61 | 1005.2 |
| 20260504033007 | 14 | 63 | 4.8 | 6.4 | 0.00 | 0.00 | 0.00 | 56 | 1005.1 |
| 20260504031507 | 15 | 63 | 3.2 | 6.4 | 0.00 | 0.00 | 0.00 | 51 | 1005.0 |
| 20260504030014 | 16 | 63 | 0.0 | 1.6 | 0.00 | 0.00 | 0.00 | 47 | 1005.0 |
| 20260504024508 | 17 | 63 | 3.2 | 4.8 | 0.00 | 0.00 | 0.00 | 40 | 1004.9 |
| 20260504023006 | 17 | 63 | 3.2 | 4.8 | 0.00 | 0.00 | 0.00 | 40 | 1004.8 |
| 20260504021505 | 17 | 63 | 3.2 | 6.4 | 0.00 | 0.00 | 0.00 | 49 | 1004.8 |
| 20260504020005 | 20 | 63 | 3.2 | 4.8 | 0.00 | 0.00 | 0.00 | 37 | 1004.6 |
| 20260504014503 | 21 | 63 | 3.2 | 6.4 | 0.00 | 0.00 | 0.00 | 35 | 1004.7 |
| 20260504013009 | 21 | 63 | 3.2 | 8.0 | 0.00 | 0.00 | 0.00 | 32 | 1004.9 |
| 20260504011601 | 22 | 63 | 9.7 | 12.9 | 0.00 | 0.00 | 0.00 | 29 | 1005.1 |
| 20260504010100 | 22 | 49 | 6.4 | 17.7 | 0.00 | 0.00 | 0.00 | 31 | 1005.2 |
| 20260504004640 | 22 | 32 | 3.2 | 9.7 | 0.00 | 0.00 | 0.00 | 28 | 1005.4 |
| 20260504003101 | 22 | 32 | 12.9 | 22.5 | 0.00 | 0.00 | 0.00 | 29 | 1005.5 |
| 20260504001622 | 22 | 5 | 6.4 | 16.1 | 0.00 | 0.00 | 0.00 | 27 | 1005.6 |
| 20260504000104 | 22 | 11 | 4.8 | 8.0 | 0.00 | 0.00 | 0.00 | 26 | 1005.8 |
| 20260503234600 | 23 | 15 | 12.9 | 20.9 | 0.00 | 0.00 | 0.00 | 29 | 1006.1 |
| 20260503233057 | 23 | 285 | 3.2 | 8.0 | 0.00 | 0.00 | 0.00 | 25 | 1006.0 |
| 20260503231548 | 23 | 313 | 4.8 | 14.5 | 0.00 | 0.00 | 0.00 | 27 | 1006.3 |
| 20260503230108 | 22 | 339 | 3.2 | 17.7 | 0.00 | 0.00 | 0.00 | 27 | 1006.6 |
| 20260503224545 | 22 | 316 | 8.0 | 16.1 | 0.00 | 0.00 | 0.00 | 29 | 1006.8 |
| 20260503223044 | 22 | 13 | 4.8 | 22.5 | 0.00 | 0.00 | 0.00 | 27 | 1006.9 |
| 20260503221541 | 22 | 31 | 14.5 | 22.5 | 0.00 | 0.00 | 0.00 | 30 | 1007.2 |
| 20260503220045 | 22 | 311 | 8.0 | 24.1 | 0.00 | 0.00 | 0.00 | 27 | 1007.3 |
| 20260503214537 | 22 | 224 | 4.8 | 8.0 | 0.00 | 0.00 | 0.00 | 32 | 1007.5 |
| 20260503213036 | 22 | 24 | 16.1 | 25.7 | 0.00 | 0.00 | 0.00 | 31 | 1007.7 |
| 20260503211534 | 22 | 40 | 6.4 | 16.1 | 0.00 | 0.00 | 0.00 | 29 | 1007.9 |
| 20260503210032 | 22 | 329 | 11.3 | 33.8 | 0.00 | 0.00 | 0.00 | 28 | 1008.0 |
| 20260503204530 | 22 | 26 | 12.9 | 29.0 | 0.00 | 0.00 | 0.00 | 31 | 1008.4 |
| 20260503203044 | 21 | 319 | 16.1 | 20.9 | 0.00 | 0.00 | 0.00 | 31 | 1008.6 |
| 20260503201530 | 21 | 21 | 14.5 | 24.1 | 0.00 | 0.00 | 0.00 | 36 | 1008.7 |
| 20260503200023 | 21 | 35 | 14.5 | 32.2 | 0.00 | 0.00 | 0.00 | 35 | 1008.9 |
| 20260503194534 | 21 | 52 | 9.7 | 19.3 | 0.00 | 0.00 | 0.00 | 40 | 1009.1 |
| 20260503193019 | 20 | 55 | 16.1 | 27.4 | 0.00 | 0.00 | 0.00 | 47 | 1009.3 |
| 20260503191516 | 20 | 70 | 11.3 | 19.3 | 0.00 | 0.00 | 0.00 | 46 | 1009.5 |
| 20260503190016 | 20 | 80 | 11.3 | 19.3 | 0.00 | 0.00 | 0.00 | 39 | 1009.9 |
| 20260503184519 | 20 | 68 | 4.8 | 17.7 | 0.00 | 0.00 | 0.00 | 39 | 1010.3 |
| 20260503183008 | 20 | 72 | 8.0 | 14.5 | 0.00 | 0.00 | 0.00 | 42 | 1010.5 |
| 20260503181506 | 19 | 89 | 6.4 | 12.9 | 0.00 | 0.00 | 0.00 | 42 | 1010.8 |
| 20260503180002 | 18 | 90 | 1.6 | 12.9 | 0.00 | 0.00 | 0.00 | 42 | 1011.1 |
| 20260503174603 | 18 | 90 | 3.2 | 11.3 | 0.00 | 0.00 | 0.00 | 44 | 1011.2 |
| 20260503173100 | 17 | 67 | 1.6 | 4.8 | 0.00 | 0.00 | 0.00 | 45 | 1011.3 |
| 20260503171552 | 17 | 67 | 3.2 | 6.4 | 0.00 | 0.00 | 0.00 | 47 | 1011.7 |